Showing default

UMBRA-10, 60547

Orbit data source: Space-Track

UMBRA-10, 60547 is a payload satellite owned by Umbra Labs (US) in SSO that was launched on Fri, 16 Aug 2024 UTC via an FALCON 9 launch vehicle from the Air Force Western Test Range (AFWTR). Payload-class satellites include a variety of spacecraft equipped with specific instruments for various scientific and technological missions. These include communications satellites like Starlink; space stations such as the ISS; scientific satellites like the Hubble; Earth observation satellites from companies like Planet Labs, Umbra, and HawkEye 360; GPS; miniature CubeSats for education and research; and military/defense satellites.

Loading next visibility...
Identifier
60547, 2024-149CH
Orbit
SSO
Country
Flag of USUS
Related business
Manufacturer
Umbra Labs
Mission
Operational Commercial Radar Imaging
Bus & Motor
ESPASAT?, Unknown motor
Mass
84 kg wet, 79 kg dry
Launch date (UTC)
2024-08-16 (2 years ago)
Launch vehicle
FALCON 9
Launch site
Air Force Western Test Range (AFWTR)
Object type
Payload
Rocket body
Debris
Shape & HBR
Box + 2 Pan + 1 Dish, 2.0 m
Radar Cross Section
6.513 m², Large (>1 m²)

Expand to show TLE details & history
Last TLE update: 15 hours ago

TLE from 15 hours ago
0 UMBRA-10
1 60547U 24149CH  26171.23090050  .00012937  00000-0  63693-3 0  9990
2 60547  97.6973 258.5166 0000450  96.2050 263.9234 15.18117660101196
Epoch: 2026-06-20T05:32Z
TLE epoch observation values (Epoch: 2026-06-20T05:32:29.803Z)
Latitude
-0.00006°
Longitude
-93.05607°
Altitude
514.642 km
Speed
7.606 km/s
True Right ascension
17h 14m 03s
True Declination
0° 00' 00"
Sunlit
Object was in full shadow at epoch
Visualization orbit readout
Latitude
Unknown
Longitude
Unknown
Altitude
Unknown
Speed
Unknown
Apparent Right ascension
Unknown
Apparent Declination
Unknown
Sunlit
N/A
Visualization observer readout
Local Sidereal Time
07:21:55
Azimuth
Unknown
Elevation
Unknown
Doppler factor
Unknown
Orbital elements
Apogee altitude
508.821 km
Perigee altitude
508.201 km
Semi-major axis
6,886.648 km
Eccentricity
0.00005
Inclination
97.6973°
RAAN
258.5166°
Arg. of periapsis
96.205°
True anomaly
263.91827°
Mean anomaly
263.9234°
Eccentric anomaly
263.92084°
Mean motion
3.79779 °/min
Orbital period
94.79 mins
BSTAR
0.00063693
Loading maneuver chart data...
Computing Atmospheric mass density...
Loading historical data...
Loading historical data...
Loading historical data...
Loading historical data...
Loading historical data...
Loading historical data...
Loading historical data...

Documentation

Showing up to 5 results
|